Temperature
14 15 15 15 15 15 15 15 15 15 15 15 15 15 15 15 15 15 15 15 15 15 15 15 15 15 15 15 15 15 15 15 15 15 15 15 14 14 14 14 14 14 14
14 14 14 15 15 15 15 15 15 15 15 15 15 15 15 15 15 15 15 15 15 15 15 15 14 14 15 15 15 15 15 15 15 14 14 14 14 14 14 14 14 14 14
14 14 14 14 14 15 15 14 14 15 15 15 15 15 15 15 15 15 15 15 14 14 14 14 14 14 14 15 15 15 15 15 14 14 14 14 14 14 14 14 14 14 14
14 14 14 14 14 14 14 14 14 14 14 14 14 14 14 14 15 15 15 14 14 14 14 14 14 14 15 15 15 15 15 14 14 14 14 14 14 14 14 14 13 13 13
13 13 14 14 14 14 14 14 14 14 14 14 14 14 14 14 14 14 14 14 14 14 14 14 14 14 14 14 14 14 14 14 14 13 13 14 14 13 13 13 13 13 13
13 13 13 13 14 14 14 14 14 14 14 14 14 14 14 14 14 14 14 14 14 14 14 14 14 14 14 14 14 14 14 14 13 13 13 13 13 13 13 13 13 13 13
13 13 13 13 13 13 13 13 13 14 14 14 14 13 13 13 14 14 14 14 14 14 14 14 14 14 14 14 14 14 14 14 13 13 13 13 13 13 13 13 13 13 13
12 12 12 13 13 13 13 13 13 13 13 13 13 13 13 13 13 13 13 14 14 14 14 14 14 14 14 14 14 14 13 13 13 13 13 13 13 13 13 13 13 13 13
12 12 12 12 12 12 13 13 12 13 13 13 13 13 13 13 13 13 13 13 13 13 13 13 13 13 13 13 14 13 13 13 13 13 13 13 13 13 13 13 13 13 13
11 11 11 11 11 12 12 12 12 12 12 12 12 13 13 13 13 13 13 13 13 13 13 13 13 13 13 13 13 13 13 13 13 13 13 13 13 13 13 13 13 13 13
11 11 11 11 11 11 11 11 12 12 12 12 12 12 12 12 12 12 12 12 12 12 13 13 13 13 13 13 13 13 13 12 12 12 12 12 13 13 13 13 12 12 12
10 10 11 11 11 11 11 11 11 11 11 11 12 12 12 12 12 12 12 12 12 12 12 12 12 12 12 12 12 12 12 12 12 12 12 12 12 12 13 12 12 12 12
10 10 10 10 10 10 10 10 11 11 11 11 11 11 11 11 11 11 11 11 12 12 12 12 12 12 12 12 12 12 12 12 12 12 12 12 12 12 12 12 12 12 12
9 9 9 9 10 10 10 10 10 10 10 10 10 10 11 11 11 11 11 11 11 11 11 11 11 11 11 11 12 12 12 12 11 11 11 12 12 12 12 12 12 12 12
9 9 9 9 9 9 10 10 10 10 10 10 10 10 10 10 10 10 10 11 11 11 11 11 11 11 11 11 11 11 11 11 11 11 11 11 12 12 12 12 12 11 11
8 8 9 9 9 9 9 9 9 9 9 9 9 9 9 10 10 10 10 10 10 10 10 10 10 10 10 11 11 11 11 11 11 11 11 11 11 11 11 11 11 11 11
8 8 8 8 8 8 8 8 9 9 9 9 9 9 9 9 9 9 10 10 10 10 10 10 10 10 10 10 10 10 10 11 11 10 11 11 11 11 11 11 11 11 11
8 8 8 8 8 8 8 8 8 8 8 8 9 9 9 9 9 9 9 9 9 9 9 9 9 9 10 10 10 10 10 10 10 10 10 10 10 10 10 10 11 11 10
7 7 8 8 7 8 8 8 8 8 8 8 8 8 8 8 8 9 9 9 9 9 9 9 9 9 9 9 10 10 10 10 10 10 10 10 10 10 10 10 10 10 10
7 7 7 7 7 7 7 7 7 7 7 8 8 8 8 8 8 8 8 8 9 9 9 9 9 9 9 9 9 9 9 9 9 9 9 9 9 9 9 10 10 10 10
7 7 7 7 7 7 7 7 7 7 7 7 7 7 7 7 7 7 8 8 8 8 8 8 8 8 8 8 8 8 9 9 9 9 9 9 9 9 9 9 9 9 9
6 6 6 6 6 6 6 6 6 6 6 6 6 7 7 7 7 7 7 7 7 8 8 8 7 7 7 7 7 7 7 8 8 8 8 8 8 8 8 8 8 8 9
6 6 6 6 6 6 6 6 6 6 6 6 6 6 6 6 6 6 7 7 7 7 7 7 7 7 7 7 7 7 6 6 7 7 7 7 7 8 8 8 8 8 8
6 6 6 6 5 5 6 6 6 5 5 5 5 6 6 6 6 6 6 6 6 6 6 6 6 6 6 6 6 6 6 6 6 6 7 7 7 7 7 7 7 7 7
5 5 5 5 5 5 5 5 5 5 5 5 5 5 5 5 5 5 6 6 6 6 6 6 6 6 6 6 6 6 6 6 6 6 6 6 6 6 6 6 6 7 7
5 5 5 5 5 5 5 5 5 5 5 5 5 5 5 5 5 5 5 5 5 5 6 6 6 6 6 5 6 6 6 6 6 6 5 6 6 6 6 6 6 6 6
Wind_Speed
5 7 8 7 7 6 7 7 7 7 7 6 6 7 7 7 7 7 7 7 7 7 6 7 7 6 7 7 8 9 9 8 8 8 8 8 9 9 9 9 9 9 10
5 8 8 7 7 6 6 6 6 7 7 6 5 6 6 6 6 6 7 7 6 6 6 6 6 6 6 7 8 8 7 7 6 6 6 7 8 8 8 9 9 8 9
6 8 8 7 6 7 6 6 6 6 6 6 5 5 5 6 6 6 6 6 6 6 5 5 6 6 6 6 7 6 5 4 3 3 3 5 7 8 8 8 8 8 8
7 8 7 7 6 6 7 7 6 5 5 6 6 5 5 5 5 6 6 6 6 6 5 5 5 6 6 5 5 5 4 3 2 2 3 5 6 7 7 7 7 7 7
7 8 7 6 6 5 6 7 7 6 5 6 5 5 4 4 5 5 6 6 6 6 5 5 5 4 5 4 4 3 2 2 2 2 3 5 6 6 6 6 6 6 6
7 8 7 6 5 5 5 6 6 6 5 5 5 4 4 3 4 4 5 6 5 5 5 5 4 4 4 3 2 2 1 3 3 2 3 5 5 6 5 5 4 4 4
6 7 6 5 4 4 4 5 5 5 5 4 5 4 3 3 3 4 4 5 5 5 4 5 4 3 3 2 2 1 2 3 2 2 2 4 5 5 4 4 4 3 4
6 6 5 4 4 3 3 4 4 4 4 4 3 4 3 3 3 3 4 4 4 4 4 4 5 4 2 2 2 2 3 3 2 1 1 4 5 4 4 4 3 3 3
6 6 5 4 3 3 2 3 3 4 4 4 3 3 2 1 2 2 3 3 3 4 4 4 3 4 2 2 2 2 4 3 3 2 1 3 4 4 3 3 3 3 3
3 4 5 5 4 3 2 2 3 3 4 3 4 3 2 1 1 2 2 2 3 3 3 3 3 3 2 2 3 3 4 4 3 1 1 2 3 3 3 2 2 2 2
3 3 4 5 4 4 3 1 2 2 3 3 3 3 2 1 1 2 2 2 1 2 2 2 2 2 2 3 4 4 4 3 1 1 1 2 3 2 2 2 1 2 1
2 2 2 3 3 3 4 2 1 1 2 2 2 3 3 2 2 2 2 1 1 2 2 2 2 2 2 1 2 4 3 3 1 1 1 2 3 2 2 1 1 1 1
1 2 2 2 3 2 2 3 2 2 1 2 2 3 3 3 2 2 2 1 2 2 2 2 2 3 2 1 1 2 2 3 1 1 1 2 2 2 2 2 1 2 1
1 2 2 2 3 2 2 2 2 2 2 2 2 3 3 2 2 1 1 1 1 2 1 2 2 3 3 2 1 2 2 1 1 0 1 2 2 2 2 3 2 2 2
1 1 2 1 2 2 2 2 2 2 2 2 2 2 2 2 1 1 1 1 1 2 2 2 2 2 2 2 2 2 2 2 1 1 0 2 2 3 3 3 4 3 2
1 1 1 0 2 1 1 1 1 2 3 3 2 2 2 2 2 1 1 1 1 2 2 2 2 2 2 2 2 2 2 2 2 1 2 2 2 3 4 4 4 4 3
2 1 1 1 1 0 0 1 2 2 2 2 2 2 2 3 3 2 1 1 2 2 3 2 2 2 2 1 2 2 2 2 2 2 2 2 2 3 4 4 4 4 4
1 1 1 1 1 0 0 0 1 2 2 2 3 3 2 2 2 2 1 1 2 2 2 1 1 1 2 2 2 2 2 2 2 2 1 1 1 1 2 3 3 3 3
1 1 1 1 1 1 0 1 1 1 1 1 2 3 3 3 3 2 1 1 2 1 1 2 2 1 2 2 2 2 2 2 2 1 0 0 0 0 1 2 2 2 3
1 0 1 1 1 1 1 0 1 0 0 1 1 2 3 2 3 3 2 2 2 1 1 1 2 2 1 2 3 3 2 3 1 1 1 0 1 1 1 1 1 2 3
2 1 0 1 1 1 1 0 0 1 1 1 0 1 3 2 2 1 2 2 2 1 1 2 2 2 2 1 1 2 2 2 1 1 1 0 0 0 1 1 1 1 2
1 1 1 1 1 1 1 1 1 1 1 1 1 0 2 2 1 1 1 1 2 1 1 1 1 2 2 1 1 1 1 2 2 1 1 1 1 0 1 2 1 1 1
1 2 2 1 1 1 1 1 0 0 1 1 1 1 1 2 2 1 1 1 2 1 1 2 1 2 2 2 1 0 0 1 3 2 1 1 0 0 1 1 1 1 1
2 1 1 1 1 1 1 1 2 2 2 3 2 1 1 1 2 1 1 1 1 1 1 2 2 2 2 2 2 1 1 1 1 2 2 1 0 1 1 1 0 1 2
1 0 0 1 1 2 2 2 2 2 2 2 2 2 2 1 2 2 1 1 1 1 2 1 2 2 2 2 2 2 2 1 2 2 3 3 1 1 1 1 0 1 2
0 0 0 1 1 2 2 3 3 3 3 3 3 2 2 2 2 2 2 1 2 2 2 2 2 2 2 2 2 2 2 1 2 1 3 3 2 2 1 0 1 1 2
Wind_Direction
84 89 76 66 56 54 55 54 53 51 51 56 60 58 57 57 58 59 55 58 62 62 63 67 68 72 74 73 73 70 70 74 79 83 81 76 74 76 74 69 67 70 70
91 99 87 66 59 52 54 53 54 54 51 54 62 59 60 58 59 60 57 56 58 61 62 68 69 74 79 76 73 73 71 71 80 89 88 84 80 75 77 71 65 74 70
89 95 87 63 61 55 49 49 51 55 55 51 58 60 59 61 59 58 56 55 55 57 62 65 70 74 77 76 75 75 74 69 69 82 91 93 88 82 80 74 72 70 69
78 87 83 65 59 59 55 49 48 54 55 52 54 58 60 63 60 60 59 58 56 54 55 62 68 69 72 77 81 79 71 49 18 50 77 85 88 88 83 76 74 71 69
69 83 86 71 59 62 61 55 47 49 54 52 48 51 63 64 66 63 59 58 58 53 52 56 61 66 67 73 79 78 59 9 345 19 66 80 88 97 92 83 78 72 69
66 73 85 76 60 64 63 59 50 46 46 47 43 47 56 64 62 63 64 62 60 55 51 47 52 61 63 58 65 55 14 332 339 40 60 81 90 99 99 93 85 76 73
57 63 81 76 59 64 68 60 51 45 40 39 43 47 56 61 65 66 64 62 57 51 47 41 39 47 52 38 15 346 330 331 355 27 53 83 97 106 102 99 90 82 74
50 58 69 86 67 57 68 62 52 43 37 36 38 41 51 56 60 64 60 63 57 45 42 37 33 28 36 13 344 326 314 314 342 346 58 86 112 116 105 104 96 86 82
46 48 46 67 80 56 56 57 51 41 35 27 32 36 32 51 65 62 58 58 53 42 34 31 24 14 360 337 312 296 297 299 311 315 18 92 130 137 126 117 107 96 79
46 48 34 28 40 32 39 54 48 41 39 33 30 22 20 26 58 60 57 63 46 34 27 20 17 358 336 298 278 269 278 282 282 308 60 104 136 152 149 139 125 113 93
26 39 34 18 27 20 360 31 51 44 52 41 30 15 358 357 23 60 67 61 24 9 3 1 355 343 334 283 259 258 264 261 244 59 70 129 147 159 162 167 157 127 111
360 6 35 14 6 18 358 10 25 26 48 31 18 15 0 346 354 41 56 58 11 2 351 338 326 312 318 301 286 265 274 283 249 106 102 173 186 202 190 189 179 166 167
331 349 21 24 2 13 1 11 9 3 6 22 13 360 3 1 11 35 35 33 18 3 347 327 316 295 301 333 301 271 291 321 338 56 113 176 202 223 224 221 218 215 230
335 344 11 29 6 360 8 5 10 356 1 16 355 6 10 9 3 6 20 357 332 331 323 302 297 303 317 318 291 272 281 304 326 30 152 173 206 230 243 241 244 252 254
315 332 9 13 352 353 8 352 18 7 357 360 7 12 10 19 332 342 355 333 317 319 317 303 293 301 316 320 314 297 291 291 294 345 155 200 231 236 244 255 253 254 271
257 287 342 358 344 338 20 356 20 12 5 9 18 4 6 9 357 324 325 331 332 324 315 305 299 303 306 322 315 313 300 294 293 257 223 224 239 247 249 250 259 258 271
239 246 289 267 324 285 85 10 17 13 17 12 359 0 10 10 351 338 307 300 327 334 324 321 308 311 298 306 295 295 293 281 279 261 218 205 228 245 255 256 258 266 266
259 234 248 285 305 171 91 30 35 18 20 12 358 356 358 357 341 349 307 289 321 337 329 304 289 286 287 288 295 292 283 287 281 260 241 202 205 233 267 272 260 283 281
277 229 206 203 193 153 91 25 54 36 34 6 2 359 341 342 335 3 338 313 330 334 303 292 303 277 280 299 300 286 273 268 269 289 290 148 75 301 249 265 258 279 300
321 310 153 136 169 132 123 61 61 38 346 20 26 359 332 332 340 355 348 318 327 297 292 290 292 302 283 281 303 302 276 260 237 232 261 340 55 30 349 296 276 275 303
351 350 152 198 203 129 167 227 331 301 291 301 28 12 330 319 330 342 327 323 324 279 269 273 279 298 300 317 330 314 300 263 220 218 233 172 154 359 337 311 284 277 281
280 276 263 244 244 226 208 224 215 247 279 273 296 295 317 313 317 296 310 322 321 302 293 288 295 293 295 335 319 322 323 316 314 277 224 204 227 296 280 287 286 286 316
251 243 259 249 260 245 211 192 113 304 290 287 270 253 275 299 295 287 292 306 302 291 282 284 261 277 273 283 294 156 214 263 310 292 246 226 198 322 248 277 286 328 347
242 237 216 225 252 252 220 197 203 239 256 262 260 252 255 291 296 303 288 287 284 291 272 279 284 274 253 262 276 285 250 246 264 298 304 285 250 290 262 299 274 313 25
227 193 203 235 252 265 238 219 226 241 253 264 265 263 271 268 263 275 270 263 266 265 253 261 290 281 265 255 269 277 285 286 256 255 283 290 298 275 267 252 142 48 29
212 155 224 254 259 255 249 238 229 232 244 254 262 255 260 253 244 234 255 260 261 259 251 243 255 256 263 262 263 267 255 247 249 263 273 272 280 277 277 208 87 57 52
Height
1515 1514 1514 1515 1515 1515 1515 1515 1515 1515 1516 1516 1517 1517 1517 1518 1518 1519 1519 1519 1519 1520 1520 1520 1520 1521 1521 1521 1521 1521 1522 1522 1522 1523 1523 1523 1523 1523 1523 1523 1523 1523 1523
1515 1514 1514 1514 1515 1515 1515 1515 1515 1515 1516 1516 1516 1517 1517 1518 1518 1518 1519 1519 1519 1520 1520 1520 1521 1521 1521 1521 1521 1521 1522 1523 1523 1523 1523 1523 1524 1524 1523 1523 1523 1523 1523
1515 1514 1514 1514 1514 1514 1514 1515 1515 1515 1515 1516 1516 1516 1517 1517 1518 1518 1518 1519 1519 1519 1520 1520 1520 1521 1521 1521 1521 1522 1522 1523 1523 1524 1523 1523 1524 1524 1524 1524 1523 1523 1523
1514 1514 1514 1514 1514 1514 1514 1514 1514 1514 1515 1515 1515 1516 1516 1517 1517 1518 1518 1518 1518 1519 1519 1519 1520 1520 1520 1521 1521 1522 1522 1523 1523 1524 1524 1524 1524 1524 1524 1524 1523 1523 1523
1514 1514 1513 1513 1513 1513 1513 1513 1513 1514 1514 1514 1514 1515 1515 1516 1516 1517 1517 1517 1518 1518 1518 1519 1519 1519 1520 1520 1521 1521 1522 1523 1523 1523 1523 1523 1523 1523 1523 1523 1523 1523 1523
1513 1513 1513 1513 1513 1513 1513 1513 1513 1513 1513 1513 1514 1514 1514 1514 1515 1516 1516 1516 1517 1517 1517 1518 1518 1518 1519 1519 1520 1521 1521 1522 1522 1523 1523 1523 1523 1523 1523 1523 1523 1523 1522
1513 1512 1512 1512 1512 1512 1512 1512 1512 1512 1512 1512 1512 1513 1513 1513 1514 1514 1515 1515 1515 1516 1516 1516 1517 1517 1518 1518 1519 1520 1520 1521 1521 1522 1522 1522 1522 1522 1522 1522 1522 1522 1522
1512 1512 1511 1511 1511 1511 1511 1511 1511 1511 1511 1511 1511 1511 1512 1512 1512 1513 1513 1514 1514 1514 1515 1515 1515 1516 1516 1517 1517 1518 1519 1520 1520 1521 1521 1521 1522 1522 1522 1521 1521 1521 1521
1511 1511 1511 1510 1510 1510 1510 1510 1510 1510 1510 1510 1510 1510 1510 1510 1510 1511 1511 1512 1513 1513 1513 1513 1514 1514 1515 1515 1516 1516 1517 1518 1519 1519 1520 1520 1520 1521 1520 1520 1520 1520 1520
1510 1510 1509 1509 1509 1509 1508 1509 1509 1509 1508 1509 1509 1509 1509 1508 1508 1508 1509 1510 1511 1511 1511 1512 1512 1513 1513 1514 1514 1514 1515 1516 1517 1517 1518 1518 1519 1519 1519 1519 1519 1519 1519
1509 1509 1508 1508 1508 1507 1507 1507 1507 1507 1507 1507 1507 1507 1507 1507 1507 1507 1507 1508 1509 1509 1510 1510 1511 1511 1511 1512 1512 1513 1513 1514 1515 1515 1516 1516 1517 1517 1517 1517 1517 1517 1517
1508 1507 1507 1506 1506 1506 1506 1506 1505 1505 1505 1505 1505 1505 1505 1505 1506 1506 1506 1507 1507 1508 1508 1508 1509 1509 1509 1509 1510 1511 1511 1512 1512 1513 1514 1514 1515 1515 1515 1515 1515 1516 1516
1506 1506 1505 1504 1504 1504 1504 1503 1503 1504 1504 1504 1503 1503 1503 1503 1504 1504 1504 1505 1505 1506 1506 1506 1507 1507 1507 1507 1508 1508 1509 1510 1510 1510 1511 1512 1512 1513 1513 1513 1513 1513 1513
1505 1504 1503 1502 1501 1502 1501 1502 1502 1502 1502 1502 1501 1501 1501 1501 1502 1502 1502 1503 1503 1504 1504 1504 1505 1505 1505 1505 1506 1506 1507 1507 1508 1508 1508 1509 1509 1510 1510 1510 1511 1511 1511
1503 1502 1501 1500 1500 1499 1499 1499 1500 1500 1500 1500 1499 1499 1499 1499 1499 1500 1500 1500 1501 1501 1502 1502 1502 1503 1503 1503 1503 1503 1504 1504 1505 1505 1505 1505 1506 1506 1507 1508 1508 1508 1508
1500 1499 1498 1498 1498 1497 1497 1497 1497 1498 1498 1498 1497 1498 1498 1497 1497 1497 1498 1498 1499 1499 1499 1500 1500 1500 1501 1500 1501 1501 1501 1502 1502 1503 1503 1502 1503 1503 1503 1504 1505 1505 1505
1497 1497 1496 1495 1495 1495 1494 1494 1495 1495 1496 1495 1495 1495 1495 1495 1495 1495 1495 1496 1496 1496 1497 1497 1498 1498 1498 1498 1498 1498 1498 1499 1499 1500 1500 1499 1500 1500 1501 1501 1501 1502 1502
1495 1494 1494 1493 1492 1492 1491 1491 1491 1493 1493 1493 1493 1493 1493 1493 1493 1493 1493 1493 1493 1494 1494 1495 1495 1495 1495 1495 1495 1495 1495 1496 1496 1497 1496 1496 1497 1497 1497 1497 1498 1498 1498
1492 1492 1491 1491 1490 1489 1489 1489 1489 1490 1490 1490 1490 1490 1491 1491 1491 1490 1490 1490 1491 1491 1491 1492 1492 1492 1492 1492 1492 1492 1492 1493 1493 1493 1493 1493 1493 1493 1493 1493 1494 1494 1494
1488 1488 1488 1488 1487 1486 1486 1486 1486 1487 1487 1488 1488 1488 1488 1488 1487 1487 1487 1487 1487 1488 1489 1489 1489 1490 1489 1489 1489 1489 1489 1490 1490 1490 1490 1490 1490 1490 1490 1490 1490 1490 1490
1486 1485 1484 1484 1484 1484 1484 1484 1483 1484 1484 1485 1485 1485 1485 1485 1485 1484 1485 1485 1484 1485 1485 1486 1487 1487 1487 1487 1486 1485 1486 1487 1487 1487 1487 1487 1487 1487 1487 1486 1486 1486 1487
1484 1483 1482 1482 1482 1482 1482 1482 1482 1482 1482 1482 1482 1482 1483 1482 1482 1482 1482 1482 1482 1482 1483 1483 1484 1484 1484 1484 1484 1483 1483 1484 1484 1484 1484 1484 1483 1483 1483 1483 1482 1483 1483
1481 1480 1480 1479 1479 1479 1479 1479 1479 1480 1479 1479 1479 1479 1480 1479 1479 1479 1479 1479 1480 1480 1480 1480 1481 1481 1481 1482 1482 1483 1482 1481 1481 1480 1480 1481 1481 1481 1480 1480 1479 1480 1480
1478 1478 1477 1477 1476 1476 1476 1476 1476 1476 1476 1476 1476 1476 1476 1476 1476 1476 1476 1476 1477 1477 1477 1478 1478 1479 1479 1478 1479 1480 1481 1480 1480 1478 1478 1478 1477 1477 1477 1477 1476 1477 1477
1475 1475 1474 1474 1474 1474 1473 1473 1473 1473 1473 1474 1474 1473 1473 1473 1473 1473 1473 1474 1474 1474 1474 1475 1475 1476 1476 1476 1476 1476 1477 1477 1478 1477 1475 1474 1474 1474 1475 1474 1474 1474 1474
1473 1472 1472 1471 1471 1471 1471 1471 1470 1470 1471 1471 1470 1470 1470 1470 1470 1470 1470 1470 1471 1471 1471 1471 1472 1473 1473 1473 1473 1473 1474 1474 1474 1474 1473 1472 1470 1471 1471 1472 1471 1471 1471